Location: Hochstatterhof
(48.7256°N, 10.3487°E)
Time: 02:59:31
(UTC+00:00)

Cosmos 292 Rocket - Pass Details

Date: 26 September 2023
Orbit: 670 x 690 km, 74.0° (Epoch: 04 December)

Event Time Altitude Azimuth Distance (km) Brightness Sun altitude
Exits shadow 04:01:39 11° 221° (SW) 2,087 5.8 -12.1°
Maximum altitude 04:06:13 52° 298° (WNW) 853 4.0 -11.3°
Drops below altitude 10° 04:10:54 10° 15° (NNE) 2,131 6.7 -10.6°
Sets 04:13:16 0° 20° (NNE) 3,046 7.6 -10.2°
